{"data":{"norad_id":52563,"intl_designator":"2022-051AG","name":"STARLINK-3942","alt_names":[],"object_type":"PAYLOAD","status":"ACTIVE","operator":null,"country":"US","launch_date":"2022-05-13","launch_site_code":"AFWTR","launch_vehicle":null,"mission":null,"orbit_class":"UNKNOWN","rcs_meters":null,"size_class":null,"mass_kg":null,"dimensions":null,"purposes":["comms"],"wikipedia_slug":null,"has_3d_model":false,"image_url":null,"decayed_at":null,"tle_current":{"epoch":"2026-05-25T00:12:56.750688Z","epoch_age_seconds":64549,"freshness":"FRESH","line1":"1 52563U 22051AG  26145.00899017 -.00000127  00000+0  10136-4 0  9998","line2":"2 52563  53.2147 151.5096 0001173  71.4516 288.6604 15.08838556222894","mean_motion":15.08838556,"eccentricity":0.0001173,"inclination_deg":53.2147,"raan_deg":151.5096,"arg_perigee_deg":71.4516,"mean_anomaly_deg":288.6604,"bstar":1.0136e-5,"rev_number":22289,"period_min":95.437646014131,"perigee_km":538.93633481059,"apogee_km":540.5592705853,"semimajor_km":6917.8848026979,"source":"CELESTRAK","updated_at":"2026-05-25T13:38:17.167032Z"}}}